RH
11 11 10 10 10 11 11 11 11 11 11 11 12 12 13 13 13 13 13 13 12 12 10 9 9 9 9 9 8 7 7 6 6 6 6 6 5 5 5 5 5 5 5 6 6 7 7 8 9 9 8 8 8 8 8 9 8 8 8 7 7 7 7 9 10 10 12 15 14 14 14 13 14 13 14 21 23 19 18 20 22 24 22 19 19 19 21 25
7 7 7 7 7 8 8 8 9 9 9 9 10 10 11 11 12 11 12 11 11 10 8 7 7 8 9 9 9 8 7 7 6 6 6 6 5 6 5 5 5 6 6 6 6 6 7 8 9 9 9 8 8 8 9 9 9 8 8 7 6 7 8 8 10 11 12 15 14 13 14 13 14 13 14 21 19 15 19 21 20 20 17 13 14 18 21 24
5 5 5 5 5 5 5 6 6 6 7 7 7 7 7 8 8 8 8 8 8 7 6 6 6 8 9 9 9 8 7 7 6 6 6 6 6 6 6 6 5 6 6 6 6 6 7 8 9 9 9 9 8 9 9 10 9 9 8 7 7 7 8 9 10 12 14 16 15 13 13 13 13 13 14 17 15 13 17 20 21 18 15 13 13 17 19 23
5 5 5 4 4 4 4 4 4 4 5 5 5 5 5 5 5 5 5 6 6 5 6 6 7 8 9 9 8 8 8 6 7 8 9 10 10 9 8 6 6 6 6 6 6 6 7 8 9 9 9 9 9 9 9 10 11 10 8 7 7 7 8 9 11 14 14 15 15 14 12 13 13 13 13 14 13 13 14 15 17 15 13 13 13 16 19 25
6 5 5 5 4 4 4 3 3 3 3 4 4 4 4 4 4 5 5 5 5 6 7 7 8 9 10 9 8 8 7 7 13 18 19 19 19 16 13 10 6 6 6 6 6 6 6 8 9 9 9 9 10 10 9 10 12 12 9 7 7 8 8 10 13 14 14 14 15 14 12 12 13 12 13 13 12 13 12 13 13 12 13 12 14 17 21 27
6 6 5 5 5 4 4 4 3 3 3 4 4 4 5 5 5 5 6 7 8 8 9 9 10 11 11 9 9 8 6 11 23 27 29 30 27 23 19 16 11 6 6 6 6 6 6 7 8 9 9 10 10 10 10 12 14 13 10 9 8 9 9 11 14 15 15 15 15 14 13 12 12 13 13 13 12 12 12 12 12 12 12 12 16 20 20 23
6 6 6 5 5 4 4 4 4 3 3 4 5 5 6 7 8 8 9 10 11 11 11 12 12 12 11 9 9 8 6 11 19 23 28 31 29 25 21 18 16 10 6 6 7 6 6 6 8 9 9 10 11 11 11 13 14 13 11 10 10 10 9 11 15 16 16 15 15 14 13 12 12 13 13 13 12 12 11 11 11 11 11 12 17 20 20 24
7 6 6 6 5 5 4 4 4 4 3 4 5 6 8 9 10 11 12 13 13 13 14 14 13 12 11 10 9 8 7 8 10 14 18 19 19 18 16 14 15 14 8 6 7 7 7 7 8 10 10 11 11 11 12 13 14 12 10 11 12 12 11 12 14 15 15 15 14 14 13 13 13 13 13 12 12 12 11 11 10 11 11 13 17 21 23 28
6 6 6 5 5 5 4 4 4 4 4 4 5 7 10 12 13 15 16 17 17 17 17 15 14 13 11 10 9 8 8 7 8 11 13 14 13 12 12 12 12 13 10 7 7 7 7 7 9 10 11 12 12 12 13 14 15 12 12 13 14 14 14 14 14 14 14 14 14 14 14 13 13 13 13 13 12 11 11 11 10 10 13 18 22 24 26 32
6 6 5 5 5 5 4 4 4 4 4 4 4 6 10 15 17 19 20 21 21 20 18 16 15 13 11 10 9 8 9 11 15 19 18 18 17 16 16 14 11 12 10 7 7 7 7 8 11 12 12 14 13 14 16 18 18 16 17 17 15 15 16 15 15 14 14 13 14 13 13 13 13 13 13 13 12 11 11 11 11 12 20 26 26 25 29 39
6 6 5 5 5 4 4 4 4 5 5 4 4 5 7 14 20 21 23 23 22 21 20 18 16 13 12 11 9 9 12 16 22 24 18 14 15 17 16 12 10 11 9 8 7 8 9 12 16 16 16 18 18 19 21 21 20 19 19 17 16 16 15 15 14 14 14 13 13 13 13 13 13 13 13 12 11 11 11 12 14 17 25 31 28 28 35 43
5 5 5 5 5 5 5 5 5 5 5 5 5 5 5 10 18 23 23 23 23 21 20 19 16 14 12 11 10 10 13 19 27 26 17 10 10 11 10 8 9 11 9 8 8 11 17 21 25 24 22 23 23 22 22 21 20 18 17 17 16 16 15 15 14 14 13 13 13 13 13 13 13 13 12 11 11 11 11 13 15 20 28 32 32 36 40 41
6 6 5 6 5 6 5 5 5 5 5 5 5 5 5 6 13 21 25 25 24 22 21 19 16 15 12 11 10 9 12 17 23 23 14 8 7 7 7 8 10 10 7 11 17 24 30 31 30 29 26 24 23 23 22 20 19 17 17 16 15 15 14 13 13 13 13 13 13 13 13 13 13 13 12 11 11 11 12 13 14 21 28 32 37 42 41 40
6 6 6 7 7 7 7 6 6 5 6 5 5 5 5 5 7 13 20 25 26 23 22 20 17 15 13 12 10 10 15 17 15 14 10 7 7 7 7 9 10 8 11 23 33 35 35 35 32 30 28 24 23 22 21 21 19 17 18 18 16 15 14 13 13 13 12 13 12 13 13 13 13 13 13 11 11 12 12 13 13 20 30 36 40 42 41 39
7 7 8 8 8 8 8 7 7 7 6 6 6 5 5 6 6 6 11 18 25 24 23 21 18 16 13 12 9 13 21 21 16 10 8 8 7 8 9 9 9 10 21 35 39 35 34 34 31 29 27 24 23 21 20 21 19 18 19 18 17 16 15 14 14 13 13 15 15 14 13 13 12 12 13 11 11 12 12 14 13 17 31 39 39 40 41 37
7 8 8 8 8 9 8 8 8 8 7 7 7 6 6 6 6 5 5 9 17 22 23 20 19 17 14 12 10 18 28 29 22 11 7 8 7 9 9 9 11 18 31 38 36 34 32 31 28 27 25 23 22 21 20 20 19 19 19 19 19 19 19 17 17 19 19 20 20 18 16 14 12 11 12 11 10 12 12 14 13 19 35 40 37 41 41 33
7 7 8 8 8 8 8 7 8 8 8 7 7 7 7 7 8 9 9 8 10 16 20 20 20 16 14 16 15 22 32 30 21 11 9 9 7 9 10 12 18 25 33 36 35 34 31 29 27 25 24 23 21 20 20 19 19 20 20 20 22 22 23 21 21 23 23 22 21 21 19 16 13 12 12 11 11 13 13 13 15 26 38 38 40 45 39 29
7 7 8 8 8 8 8 7 7 8 8 8 9 9 10 13 12 13 15 14 10 11 13 17 21 17 15 20 21 25 33 27 15 12 12 10 8 10 13 18 23 29 34 35 34 34 30 27 25 24 23 22 20 18 19 19 18 20 21 22 22 24 25 24 22 23 22 22 21 21 19 17 14 12 12 13 13 13 13 16 24 35 40 40 44 45 35 29
7 7 8 8 9 9 8 7 7 8 8 9 11 13 17 18 17 22 27 26 23 23 22 20 20 18 17 24 29 31 34 26 14 12 13 11 10 12 17 22 26 30 33 33 33 32 29 26 24 24 22 20 18 17 17 18 19 22 23 21 21 23 24 24 24 22 22 22 19 19 17 16 14 11 12 12 13 17 18 22 34 42 44 44 46 43 33 29
8 8 8 8 9 9 9 8 8 8 9 11 14 19 24 24 26 36 39 34 33 38 37 30 23 17 18 29 37 37 35 27 16 13 15 13 11 14 20 24 28 31 32 32 31 29 27 25 23 22 20 19 17 17 18 19 21 23 24 23 24 25 24 24 24 22 22 21 16 16 16 15 13 12 12 12 16 21 21 24 33 42 47 47 47 41 32 28
8 8 8 9 9 10 9 8 9 9 10 12 17 25 30 28 30 35 30 22 24 31 31 27 23 16 17 33 41 37 34 27 18 16 19 18 14 17 22 24 28 31 30 30 30 28 27 24 21 20 20 20 19 18 19 21 24 27 28 28 27 28 26 24 22 21 22 21 15 14 15 14 13 13 13 15 22 24 21 23 26 34 44 44 44 40 30 27
8 8 9 9 9 10 10 9 9 10 11 13 18 27 32 30 26 25 22 13 11 21 24 19 19 15 17 35 40 35 32 25 18 19 23 23 21 21 22 23 25 26 27 28 28 28 26 21 19 22 23 22 21 21 22 25 28 31 32 30 28 27 25 22 21 21 22 22 17 15 15 14 13 13 13 17 25 28 27 28 27 32 40 38 39 39 30 26
8 8 9 9 10 10 10 9 9 10 11 14 22 28 30 27 23 26 30 20 9 15 21 17 19 17 18 34 39 33 31 25 19 21 23 24 24 24 24 24 24 25 26 27 27 27 24 20 21 25 26 25 24 24 25 27 30 33 32 29 28 27 24 21 21 21 22 24 20 15 14 14 13 13 13 15 23 30 31 32 32 36 42 40 39 38 30 26
8 8 8 8 10 10 10 10 9 10 10 15 23 25 25 24 27 37 41 30 15 11 16 14 16 18 19 31 38 34 33 30 24 21 21 23 24 25 25 25 25 26 27 27 27 26 23 23 25 25 26 26 26 27 28 29 32 34 32 28 27 25 22 22 24 22 21 25 22 17 16 15 14 13 13 13 19 28 31 31 34 40 49 49 43 37 30 25
7 8 8 8 10 10 11 10 9 11 12 17 22 21 25 27 36 49 43 30 18 10 15 16 12 16 20 30 37 35 35 34 29 25 21 22 23 24 24 25 26 26 27 27 27 26 24 25 26 24 25 25 24 26 29 31 32 32 29 26 25 23 20 24 27 23 21 24 23 20 23 23 18 16 16 17 18 23 26 28 32 42 52 54 47 38 29 26
6 6 7 8 9 9 11 11 10 11 12 19 22 21 26 31 44 52 37 28 24 17 25 28 20 18 21 30 35 34 35 33 32 31 25 24 26 25 24 24 24 25 26 26 27 25 24 25 25 25 26 24 23 24 27 29 29 29 27 25 25 22 19 22 26 25 22 24 25 23 25 26 23 20 21 22 21 21 22 26 34 43 50 52 49 39 29 27
5 5 6 6 8 9 10 11 11 10 10 17 23 25 30 37 48 47 33 33 34 30 38 38 30 25 22 30 36 33 33 32 34 33 28 29 30 27 26 24 22 24 25 26 26 25 24 25 25 25 26 24 23 23 25 26 27 27 25 25 26 22 20 21 24 27 24 23 26 24 22 25 25 24 24 23 23 22 21 25 33 42 48 49 49 41 31 29
6 6 5 5 6 7 9 11 12 11 11 15 23 30 36 41 46 42 36 42 38 35 43 40 33 30 24 28 34 32 30 31 32 31 28 32 34 29 28 26 24 24 25 25 25 24 23 23 24 25 24 24 22 22 24 25 25 25 25 26 24 22 23 23 23 27 27 24 25 26 23 26 29 26 25 24 22 22 21 21 25 34 42 45 48 45 34 31
7 6 6 6 5 6 7 9 11 12 10 12 19 28 34 40 44 41 40 44 37 34 39 37 36 34 25 24 31 32 31 31 32 30 30 35 36 32 30 28 28 28 27 26 24 23 23 23 24 24 23 24 23 22 25 26 25 26 26 25 24 24 25 26 27 28 27 25 26 27 26 28 31 28 25 25 24 23 22 21 22 26 32 39 46 46 38 33
10 7 6 6 5 6 6 7 11 13 11 11 15 23 32 38 43 47 46 39 34 35 36 36 40 40 30 26 30 33 32 32 33 31 32 36 36 33 33 31 32 32 30 29 27 26 26 25 24 24 23 24 24 24 27 27 27 26 26 25 24 24 25 27 30 26 29 33 29 27 28 27 31 31 27 26 25 24 23 21 22 22 26 33 41 45 40 35
19 14 9 6 6 6 5 6 10 11 12 11 12 20 29 33 39 47 45 30 26 35 37 36 40 40 35 31 33 35 33 32 33 33 33 35 35 36 36 35 34 33 32 31 30 28 27 27 25 23 23 24 24 26 28 28 28 26 24 23 23 25 25 26 29 26 34 44 35 27 29 28 30 31 29 29 27 26 25 23 23 22 23 28 34 40 41 38
20 21 17 11 7 5 5 6 8 10 12 12 12 15 20 34 47 43 30 23 26 37 39 37 38 38 36 35 35 35 34 34 33 32 33 33 33 35 35 34 34 34 33 31 29 28 26 25 24 23 23 24 24 26 28 27 27 25 23 21 24 31 32 34 42 42 40 42 37 32 32 30 30 29 29 30 29 27 26 25 24 23 22 24 30 38 42 41
10 16 21 19 11 8 6 6 7 8 11 13 14 14 17 33 43 29 15 18 29 39 41 38 37 36 35 35 34 33 33 33 32 30 32 33 32 32 32 32 33 33 32 30 28 28 27 26 24 23 23 23 23 25 27 27 25 23 22 20 25 38 43 46 56 55 44 37 36 36 34 31 31 29 28 28 27 28 26 25 25 24 23 22 26 35 41 42
4 7 14 19 18 14 10 8 7 7 10 13 14 21 27 29 26 17 13 12 17 27 32 34 38 36 34 33 33 33 32 31 32 31 31 33 32 31 31 32 32 33 32 30 29 29 29 28 25 22 23 23 23 23 24 25 24 21 21 20 23 32 37 43 50 48 44 41 39 38 34 31 33 32 30 28 27 28 26 25 25 24 24 22 22 30 40 43
4 3 6 13 19 20 15 10 7 6 10 11 18 33 35 23 16 15 16 15 15 17 18 23 31 33 33 33 31 34 34 32 32 32 32 32 31 29 30 30 30 32 32 31 29 29 29 28 24 22 23 22 22 22 22 24 22 20 20 20 22 24 25 32 36 35 38 42 42 39 35 32 34 34 33 31 29 30 28 26 26 25 25 24 23 27 36 43
4 4 3 7 14 20 19 13 7 7 9 9 24 41 31 15 15 15 18 25 24 19 16 17 23 28 32 33 31 32 35 34 32 32 33 32 30 29 29 29 29 30 31 30 29 29 28 26 24 23 23 23 23 22 23 23 21 20 20 19 21 23 23 27 34 34 36 41 41 38 35 36 38 37 35 34 33 32 30 28 27 27 26 26 25 26 35 43
4 4 3 4 9 16 21 18 10 7 8 9 21 31 20 12 15 16 24 36 34 28 23 19 24 31 32 32 34 35 36 36 34 33 33 33 33 32 30 30 30 30 30 30 29 29 27 25 25 24 23 23 23 23 23 23 22 20 20 19 19 21 23 26 37 45 45 46 44 38 37 41 42 40 37 35 35 35 34 33 32 32 31 30 29 29 35 41
3 4 3 3 6 13 20 21 15 8 8 11 15 17 16 15 14 13 21 33 35 33 26 17 21 31 31 31 36 39 40 39 37 35 33 33 35 35 32 30 31 30 30 31 30 30 28 25 24 24 23 23 23 23 23 22 22 20 18 19 20 23 26 25 33 45 47 52 53 41 41 44 39 40 38 36 38 38 37 37 35 36 36 35 35 35 42 53
4 4 4 5 7 13 20 23 20 11 8 12 12 12 14 16 15 12 14 19 22 22 17 12 19 29 31 30 33 38 41 41 41 39 35 33 34 36 34 30 30 30 29 30 30 29 29 25 24 24 23 23 22 22 22 20 21 20 17 20 21 22 27 25 29 34 38 56 62 45 43 45 38 40 41 37 40 40 38 38 36 38 40 41 42 41 45 55
5 3 5 9 11 18 25 26 21 15 10 10 9 10 12 15 15 14 13 15 18 19 16 18 27 33 32 29 30 35 38 39 41 40 38 37 35 35 35 31 29 29 28 29 28 28 29 26 24 25 24 23 22 22 23 20 20 19 17 21 21 20 25 27 29 28 31 55 70 56 50 47 39 42 41 37 40 41 41 42 40 41 42 40 43 46 48 49
5 4 10 17 26 32 29 24 21 16 11 9 9 10 11 15 16 16 17 19 21 22 21 22 29 34 34 32 31 31 32 34 36 37 38 40 37 36 36 35 33 30 27 27 27 27 28 26 25 26 25 24 23 22 22 21 20 20 18 20 20 20 23 30 36 33 27 38 53 55 56 50 42 42 40 36 38 40 42 43 42 43 40 38 43 48 49 47
5 7 11 25 49 50 27 17 18 14 12 12 10 10 12 14 16 17 19 21 21 21 21 21 25 29 34 34 33 31 30 30 33 35 38 40 41 39 38 37 37 34 29 28 29 28 27 26 26 27 26 25 25 24 23 23 21 20 20 20 21 20 20 28 38 36 30 30 33 38 45 46 43 42 38 36 36 38 42 42 42 44 45 50 55 52 48 45
8 13 15 35 66 56 19 11 16 14 14 13 11 14 17 18 19 19 20 22 24 25 26 29 31 32 34 33 33 31 29 29 34 38 41 42 41 40 38 37 37 36 33 31 30 27 26 27 27 27 27 26 24 24 24 24 24 22 21 21 23 24 21 23 28 27 28 34 33 34 42 44 42 43 41 37 36 38 43 46 49 54 59 63 60 51 47 46
17 28 35 53 76 63 32 22 20 16 17 18 17 17 19 26 31 32 34 36 38 41 40 39 39 37 34 32 32 30 28 31 36 40 44 43 41 41 40 39 40 39 37 35 33 30 28 28 27 29 34 32 29 29 26 24 24 22 22 23 24 27 26 24 26 26 29 34 32 36 46 46 42 44 44 41 39 39 45 55 63 66 65 63 58 52 50 45
26 48 59 67 76 73 64 56 43 31 23 18 24 29 37 51 52 47 52 52 48 48 46 42 40 38 36 33 32 31 30 32 36 42 47 45 42 44 44 43 44 42 39 38 37 36 33 30 28 31 40 42 40 38 30 23 24 22 22 25 25 27 28 27 28 29 31 34 32 33 40 41 41 44 46 44 42 41 49 64 72 69 65 62 59 56 51 43
33 58 72 77 77 78 84 85 73 59 38 25 39 58 67 71 64 55 57 54 47 47 46 43 41 40 39 36 33 33 32 31 32 39 46 46 45 47 46 46 46 45 44 42 40 39 37 37 34 31 33 36 36 35 27 23 25 23 23 25 25 27 28 27 30 30 29 33 35 33 34 39 42 44 44 45 44 44 53 66 71 69 68 66 63 61 56 48
36 54 67 76 79 79 87 91 85 78 65 52 62 75 71 66 63 59 57 53 50 50 47 44 43 41 40 39 36 34 34 32 31 35 43 46 46 47 47 47 47 47 47 47 45 41 38 41 42 37 34 34 34 33 29 27 29 27 27 28 26 26 27 25 28 30 29 35 40 39 38 41 43 45 45 46 46 47 55 67 74 73 72 71 69 67 62 52
40 57 65 72 79 83 88 90 85 83 81 74 74 74 66 61 63 60 57 56 53 51 48 46 44 42 41 40 39 37 35 34 34 36 41 45 45 47 48 49 49 49 49 50 49 45 42 45 48 46 44 43 42 39 35 33 33 32 32 31 29 29 29 26 25 26 28 34 38 39 42 44 44 46 47 46 46 48 53 64 73 76 75 73 72 70 65 58
46 61 67 70 77 86 92 92 91 89 85 80 74 70 65 64 65 62 61 60 56 53 51 48 45 43 42 41 40 39 37 37 39 41 43 46 47 49 48 48 49 49 50 52 54 53 52 53 56 57 55 53 52 48 42 37 37 40 43 41 36 34 34 29 25 24 25 28 31 36 44 47 47 48 48 46 46 47 49 56 64 72 76 76 76 75 73 70
56 62 69 71 70 77 85 88 89 87 85 83 80 77 74 69 66 65 63 62 59 56 54 52 49 46 45 43 41 40 40 41 43 45 46 47 48 47 45 44 44 45 46 47 50 54 55 56 58 59 57 58 57 53 49 47 47 49 52 51 44 40 38 34 28 26 25 24 27 36 45 48 49 51 51 50 49 47 48 54 62 74 83 85 83 81 78 76
63 66 69 69 65 69 75 78 85 88 88 87 83 83 83 79 75 72 69 66 64 61 58 56 54 51 50 47 44 44 45 45 45 46 46 46 46 45 44 42 40 40 40 38 39 43 47 53 57 57 58 62 61 57 55 53 51 48 48 51 50 45 41 38 32 30 28 25 28 38 47 49 49 50 50 52 55 55 56 62 71 83 92 91 86 80 77 75
57 65 65 63 66 71 70 71 81 89 90 90 89 87 85 83 82 79 74 71 69 67 65 63 61 60 59 55 51 49 49 50 50 49 47 47 46 45 44 43 42 41 39 36 34 36 38 42 48 51 55 60 60 56 54 53 56 57 52 51 52 47 42 40 36 33 32 31 32 40 46 49 50 51 51 53 57 61 65 74 83 93 98 95 88 81 76 72
Wind_Speed
13 14 14 15 15 15 15 16 16 16 16 16 17 17 17 16 16 16 16 17 17 18 18 18 17 17 16 15 15 14 14 14 13 13 13 13 14 14 15 15 14 16 18 20 23 25 26 25 24 23 21 21 21 21 21 21 21 20 19 20 20 19 18 16 14 11 11 9 3 5 6 8 7 6 7 5 5 5 5 3 3 4 4 5 4 4 2 1
12 13 13 14 15 15 15 16 16 16 16 16 16 16 17 17 17 17 17 17 18 18 18 18 18 17 16 15 15 14 14 13 13 12 12 13 13 13 14 14 13 16 18 19 22 26 28 27 26 24 23 23 22 22 22 21 21 20 20 21 20 18 16 14 13 11 11 11 5 4 4 5 5 6 6 5 5 4 4 3 2 3 3 5 5 5 3 2
12 12 13 13 13 14 14 15 15 16 16 16 16 16 16 17 17 17 17 18 18 18 18 18 17 16 15 15 14 14 13 12 12 12 12 12 12 12 12 13 13 15 17 19 22 26 28 28 26 25 24 24 23 24 23 22 21 21 21 21 20 18 15 13 13 10 10 12 8 5 4 4 3 4 3 2 4 3 3 3 2 3 3 6 7 6 5 2
12 12 12 12 13 13 13 14 14 15 16 16 16 16 16 17 17 17 17 18 18 18 18 18 17 15 15 14 14 14 13 12 12 12 12 11 11 11 11 12 14 15 16 18 21 25 28 28 27 26 25 25 25 24 24 23 22 22 23 22 20 17 15 14 12 9 10 12 10 6 5 6 4 1 0 3 4 4 4 2 2 3 3 5 7 7 5 2
12 13 13 13 13 13 13 13 13 14 14 15 15 16 16 16 16 17 17 18 18 18 17 17 16 15 14 14 13 13 12 11 11 11 10 10 10 10 10 11 13 14 15 17 19 24 27 27 26 26 26 26 26 25 24 24 23 23 23 21 20 18 16 13 10 9 10 12 12 9 7 8 7 4 3 4 4 5 5 4 4 4 5 7 7 5 3 2
13 13 13 13 13 13 13 13 12 13 13 14 14 15 15 15 16 16 17 17 17 17 16 16 15 14 13 13 12 12 11 9 10 9 9 9 10 9 9 9 11 13 15 16 18 22 25 26 26 26 26 27 26 25 24 24 23 22 22 21 20 19 16 11 8 10 10 11 13 11 11 10 8 6 5 5 5 5 5 5 5 5 7 7 5 2 2 4
13 14 14 14 14 14 13 13 13 12 12 12 13 14 14 14 15 15 16 16 16 16 15 14 14 13 13 12 12 11 10 10 11 10 9 10 10 10 9 9 9 11 14 16 18 20 22 24 24 25 27 27 25 24 23 23 23 22 22 22 21 20 15 10 10 12 11 12 13 13 14 13 10 8 7 6 6 6 7 7 6 7 8 7 3 1 2 5
14 14 14 14 15 14 14 14 13 13 13 12 12 13 13 13 14 14 15 15 15 15 14 14 13 12 12 12 11 11 9 10 12 11 11 12 12 12 11 10 9 10 13 15 17 18 20 21 22 24 25 25 24 22 22 22 22 23 22 21 20 19 16 13 14 14 12 13 13 14 16 16 13 10 9 7 7 8 8 7 7 7 8 6 3 1 2 4
15 15 15 15 15 15 14 14 14 13 13 13 12 12 12 12 13 13 14 14 14 14 13 13 12 12 12 11 11 11 9 10 11 11 12 12 12 11 10 10 10 10 12 15 17 18 18 18 19 22 22 23 22 20 21 20 20 22 21 20 19 18 17 17 17 14 13 14 14 15 16 16 14 12 11 10 9 8 8 8 7 7 7 4 3 2 2 3
15 15 15 15 15 14 14 14 14 13 13 13 13 12 12 12 12 13 13 13 13 13 13 12 12 12 11 11 10 10 9 10 10 10 11 11 11 11 10 10 9 9 11 14 16 16 16 16 17 19 20 20 20 19 20 19 17 18 18 19 19 18 18 17 16 13 12 14 15 15 15 14 14 13 12 11 9 7 8 7 6 6 5 5 4 2 2 3
14 14 14 14 14 14 14 14 14 13 13 13 13 13 12 11 12 12 13 13 13 13 12 12 12 11 11 10 9 9 9 9 9 10 10 9 10 10 10 10 9 9 10 13 13 13 14 15 17 18 18 18 19 18 18 17 16 15 15 16 18 18 18 17 14 10 9 11 14 15 14 13 14 13 11 10 9 8 7 5 5 7 7 7 5 3 4 4
13 12 12 13 13 13 13 13 13 13 13 13 13 13 12 12 12 13 13 13 13 13 12 12 12 11 11 9 7 9 9 8 9 10 9 9 9 9 9 9 10 10 10 10 11 14 16 18 17 16 17 17 16 15 14 14 15 14 13 13 14 16 16 15 12 9 8 8 11 14 15 16 15 13 10 9 9 8 8 7 8 8 9 8 7 6 5 4
11 11 11 11 11 12 12 12 13 13 13 14 13 13 12 12 12 13 14 14 14 13 12 12 12 11 11 9 9 10 8 7 9 10 9 8 8 9 10 10 11 12 13 14 15 17 18 19 18 16 16 15 14 13 11 12 13 12 11 10 10 12 13 13 11 10 10 9 10 13 16 17 15 14 12 10 9 8 9 10 9 9 9 8 8 7 6 4
11 10 10 10 10 11 12 12 13 13 14 14 14 14 13 12 13 14 15 15 14 14 13 13 12 12 10 8 9 8 4 5 8 9 8 7 8 8 9 10 11 14 18 21 20 20 17 17 18 15 14 13 13 13 10 9 11 11 9 8 8 9 10 11 11 12 12 10 11 14 18 19 16 15 14 12 11 9 9 11 10 9 8 9 8 6 5 4
11 10 11 11 11 12 12 13 13 14 14 14 14 14 14 13 14 14 15 16 16 15 14 13 12 12 10 8 9 6 5 5 6 7 7 7 8 8 9 11 14 19 24 24 21 19 15 15 17 13 10 13 13 12 12 10 10 11 8 6 7 8 8 9 9 9 9 9 10 13 17 19 19 20 17 14 12 11 11 11 9 8 9 9 8 6 5 5
12 11 12 12 13 13 13 14 14 14 15 14 14 14 14 14 14 14 15 16 17 17 16 14 12 12 10 8 9 7 7 7 6 7 8 8 10 11 12 15 20 24 26 24 20 17 14 12 15 14 10 12 12 12 13 10 8 9 7 5 5 6 6 7 6 4 3 7 9 12 16 16 15 17 17 16 14 13 13 12 9 8 10 10 8 8 7 5
12 12 13 13 13 13 14 14 15 15 15 15 14 14 14 14 14 14 14 14 16 17 17 15 13 12 10 9 10 10 10 9 8 8 9 10 13 14 15 19 23 26 25 22 19 15 12 11 13 15 13 11 11 12 11 9 9 8 6 5 4 5 6 6 5 1 6 9 9 11 15 14 9 9 10 12 15 16 15 13 10 10 11 11 10 9 7 6
13 13 13 14 14 14 14 14 15 14 14 14 14 13 13 14 14 13 12 13 13 14 15 14 14 12 9 9 12 12 11 10 11 11 11 12 15 17 20 22 24 24 23 21 18 13 10 10 12 13 14 13 11 12 12 9 9 8 5 4 5 6 6 5 3 5 11 12 12 11 14 14 12 11 9 8 11 14 14 12 11 12 13 12 11 10 8 7
13 14 14 14 14 13 13 13 14 13 13 13 13 13 13 14 14 12 12 12 10 9 10 11 14 13 9 11 13 13 11 12 13 13 13 13 16 19 22 22 22 22 21 19 17 14 10 10 12 12 14 15 12 12 13 10 7 5 4 4 5 5 5 5 7 9 13 16 13 11 12 12 13 14 12 8 7 8 10 12 14 15 15 13 11 10 9 9
13 14 14 14 14 13 13 12 12 12 12 12 12 13 13 14 13 12 13 13 11 10 11 11 13 14 12 12 14 13 12 13 14 15 14 14 16 19 21 20 21 22 21 18 17 16 13 11 14 15 14 14 13 13 13 10 7 5 5 4 3 4 5 6 9 9 13 15 10 10 12 12 12 13 11 9 7 8 12 15 17 16 15 14 12 11 10 9
14 14 14 14 14 13 12 11 11 11 11 11 12 12 14 16 14 13 16 14 11 13 16 15 15 15 15 15 15 14 14 14 16 17 16 16 17 19 21 19 20 22 20 18 17 15 15 14 15 14 11 12 13 12 11 9 7 7 6 5 2 4 7 8 7 6 10 11 6 8 12 13 12 12 9 8 7 11 16 16 15 15 15 13 11 11 11 10
15 14 14 14 14 13 12 11 10 11 11 10 11 13 15 16 15 16 19 15 7 10 17 18 15 14 17 18 17 16 16 16 18 20 17 17 18 18 19 19 19 20 19 20 17 14 15 16 12 9 7 9 11 11 11 9 8 7 6 5 2 4 8 7 4 5 9 8 3 4 11 14 13 12 10 8 7 10 14 15 14 14 15 13 11 13 13 11
16 15 15 14 14 14 12 10 9 10 10 10 12 14 15 14 15 16 20 20 8 7 13 16 13 11 18 20 18 19 17 16 19 21 19 18 18 16 17 17 16 17 17 19 17 13 13 11 9 8 7 8 9 10 10 9 8 8 7 6 3 6 9 7 4 5 6 5 4 4 8 11 12 11 11 10 8 10 14 15 14 15 16 14 11 15 15 10
18 17 16 15 14 14 13 11 10 10 11 12 13 15 15 13 14 15 18 23 13 5 9 13 11 9 19 22 21 20 16 16 18 20 19 18 18 16 16 15 15 15 15 16 16 14 11 8 8 8 5 5 6 7 10 10 9 9 8 5 2 5 6 6 5 4 2 3 4 7 8 9 10 8 10 11 10 11 13 14 15 17 19 16 13 16 15 10
19 19 18 16 15 15 14 12 10 11 11 13 15 14 13 11 11 14 17 22 18 8 8 11 8 7 19 25 23 19 16 15 16 17 17 15 14 15 15 15 15 15 15 16 15 13 10 8 5 3 1 3 6 7 10 11 10 10 8 4 1 3 5 5 4 3 1 2 5 7 4 5 8 7 8 12 13 14 14 14 17 19 21 19 16 18 16 12
19 19 19 18 17 16 15 14 12 11 12 14 15 14 12 10 10 13 16 20 18 8 4 6 6 7 18 26 22 18 16 15 15 15 14 12 12 12 13 15 16 14 15 15 13 12 11 8 4 1 4 5 6 9 10 11 12 11 6 4 4 2 6 5 3 3 2 4 6 4 2 4 7 8 8 10 12 13 14 14 16 20 22 20 18 20 18 15
20 20 20 19 19 17 17 16 13 12 13 14 15 14 11 9 8 13 14 13 10 3 3 4 5 6 15 25 23 17 13 11 15 17 15 13 12 12 12 14 14 14 14 13 11 11 11 7 4 3 5 4 6 11 10 12 13 10 6 5 4 4 5 5 3 2 2 5 3 2 6 8 7 8 8 7 7 8 10 12 16 20 22 21 21 22 20 17
21 21 21 20 20 19 18 17 15 14 14 14 15 14 11 7 7 11 9 4 3 1 3 2 5 4 12 24 24 18 10 7 15 19 16 14 12 12 13 11 11 11 12 12 12 10 8 6 5 5 4 1 6 11 9 11 12 9 6 5 6 6 4 5 5 2 2 4 3 3 8 7 6 10 9 6 7 5 6 9 13 19 23 23 23 23 21 18
21 22 22 20 20 20 19 17 16 17 15 15 15 15 12 8 7 8 4 1 2 1 2 0 4 3 11 22 21 20 15 7 10 16 17 16 14 13 13 11 9 10 10 12 14 11 8 8 7 7 4 1 4 8 9 9 10 9 8 7 7 6 5 5 5 4 3 4 3 3 7 5 4 11 11 8 8 6 5 6 8 14 21 24 24 24 23 20
21 22 23 22 21 21 21 18 17 19 17 15 15 16 14 10 8 4 1 2 3 1 2 1 4 2 8 18 19 20 19 10 8 12 14 16 15 14 14 12 11 11 11 13 15 13 11 11 11 8 5 4 3 6 10 10 10 9 8 8 6 6 6 5 5 5 3 2 3 4 7 5 3 8 13 11 9 8 7 6 5 8 15 23 26 25 23 21
21 22 23 23 21 21 21 17 18 21 18 16 15 15 14 11 9 3 1 4 4 2 1 3 5 4 6 14 19 20 21 16 12 12 12 14 16 18 18 16 14 12 12 14 15 14 13 13 12 10 7 6 6 7 10 11 12 10 8 7 5 5 6 5 4 6 3 2 4 6 7 7 5 7 12 12 10 9 8 6 6 7 11 18 25 26 24 23
20 21 22 23 22 21 20 18 19 22 20 17 16 15 14 10 9 11 7 4 4 3 5 4 5 6 4 8 16 20 21 21 19 17 15 13 14 18 19 19 17 13 11 14 15 14 13 13 12 11 10 8 7 8 11 12 13 11 10 9 6 2 3 2 2 3 2 2 5 8 7 7 8 8 9 9 8 7 7 6 7 8 9 14 22 27 26 24
20 20 21 23 23 20 19 19 20 22 21 19 17 17 16 8 8 18 18 8 3 4 6 4 3 5 2 4 11 16 19 21 21 21 20 17 14 14 15 17 19 16 11 12 14 15 13 11 12 12 11 11 10 10 12 14 14 14 14 13 8 4 4 1 2 1 1 3 6 9 7 5 7 7 10 11 9 8 9 8 9 9 10 13 20 27 29 26
20 20 20 22 22 20 19 19 21 23 22 20 19 17 17 12 10 17 19 15 12 8 7 8 7 6 4 4 7 10 14 17 19 21 21 20 18 16 15 16 19 20 17 13 12 11 9 8 10 13 12 11 12 12 12 13 13 14 15 15 12 8 5 3 3 2 2 4 7 8 5 3 5 6 8 12 12 11 11 11 12 11 12 15 19 26 30 28
19 20 20 21 22 21 20 20 22 24 23 22 21 20 21 21 18 16 15 14 14 13 13 13 11 10 8 6 7 8 10 12 15 18 20 21 20 18 18 16 17 21 22 16 10 8 8 8 8 13 14 12 12 14 16 15 13 12 15 16 13 11 9 5 4 5 6 5 4 6 5 3 7 8 7 8 9 10 11 12 12 12 14 16 18 23 29 29
19 19 21 21 21 21 20 21 23 25 25 24 24 25 28 26 19 14 12 11 12 12 13 12 10 11 10 9 9 10 9 9 11 15 17 19 20 19 18 16 16 20 22 19 13 8 8 9 8 12 15 15 13 15 19 19 14 11 15 18 15 12 11 7 5 4 7 5 3 6 5 5 7 8 7 7 6 6 8 11 13 14 15 17 17 21 28 31
19 18 19 21 21 20 20 20 23 26 27 27 27 29 30 28 22 15 11 9 9 9 8 8 6 7 7 8 9 10 11 8 9 13 14 14 16 18 19 17 16 18 20 20 17 12 9 9 9 11 13 14 14 14 18 21 17 12 13 17 15 11 11 8 5 3 4 2 4 4 3 5 6 4 7 8 4 4 7 8 10 11 12 15 17 21 28 33
20 18 18 20 20 19 18 19 22 26 28 28 30 30 29 28 26 21 16 12 9 8 8 9 6 5 5 6 7 9 12 9 8 11 12 11 11 11 16 18 17 18 20 20 19 16 13 10 9 11 11 11 12 12 13 16 18 14 11 13 13 8 9 11 6 2 3 1 2 3 2 6 9 7 7 8 6 6 7 7 6 4 5 8 12 17 23 28
20 18 16 17 19 17 17 19 22 26 29 30 31 30 29 28 26 24 22 19 16 14 14 12 9 7 6 5 4 6 12 11 8 10 11 12 10 8 10 13 13 17 21 21 20 18 16 13 8 10 11 10 12 13 12 12 16 15 11 13 14 8 8 13 9 6 6 3 1 2 1 5 11 12 9 9 9 9 8 6 5 4 4 5 8 12 15 15
20 17 14 14 16 15 15 18 22 26 30 32 31 29 28 27 25 24 23 21 19 16 14 12 10 10 10 8 5 4 9 11 10 11 11 11 12 9 10 10 5 9 16 18 19 19 19 17 11 8 11 10 10 12 12 12 15 15 13 15 16 10 9 12 8 6 6 4 3 2 1 3 10 13 12 11 10 10 9 7 7 6 6 5 6 9 9 6
20 17 12 12 13 11 12 17 22 26 29 31 30 28 27 25 22 21 20 19 18 15 14 14 13 13 13 11 8 5 6 9 11 14 13 13 15 12 11 12 7 4 7 12 17 19 18 18 14 9 10 10 9 10 12 12 12 13 13 15 15 12 11 10 5 6 7 4 5 5 2 5 10 11 11 10 8 9 9 8 7 8 8 7 7 8 8 5
19 15 11 10 8 7 10 15 21 24 27 28 28 26 25 24 21 19 17 16 16 15 15 15 15 15 15 13 11 9 8 9 10 14 15 15 18 16 12 13 12 8 7 7 13 18 17 15 13 9 9 10 9 8 11 11 9 10 10 12 14 13 14 11 5 8 10 5 6 7 3 6 11 10 10 10 9 10 11 10 8 9 10 11 11 10 7 5
17 13 9 8 6 5 9 15 19 21 23 24 24 22 21 20 19 18 16 15 14 14 14 13 13 14 15 15 14 12 11 11 10 13 15 14 16 16 12 11 12 13 13 9 8 13 15 12 11 11 11 13 11 9 10 10 9 9 6 8 12 12 14 13 9 12 15 10 8 6 3 6 13 11 9 10 11 12 12 11 10 11 13 14 14 10 7 7
16 12 8 6 5 7 11 15 18 19 20 21 20 19 18 16 15 14 13 12 12 11 10 11 11 12 12 13 13 11 11 13 12 13 15 16 16 14 11 11 10 11 15 12 9 11 11 9 13 13 9 8 9 7 8 9 9 9 7 7 9 10 11 11 10 13 14 13 12 8 3 9 14 12 10 10 12 14 13 12 13 14 15 15 13 10 8 8
14 10 7 6 6 9 12 14 15 17 19 19 17 15 14 13 13 13 11 10 11 11 10 9 9 10 10 10 11 10 11 12 12 13 16 18 18 16 13 12 10 8 10 10 12 12 9 8 14 13 7 6 7 5 8 10 10 10 10 10 8 8 9 9 11 13 12 13 15 10 7 14 17 14 13 12 12 15 15 16 18 18 17 17 14 12 10 10
12 8 7 5 5 5 7 11 13 15 17 18 15 13 13 12 11 12 11 9 9 11 10 7 8 10 11 11 11 11 11 12 11 13 16 18 19 19 17 14 12 10 7 6 10 12 9 8 11 11 12 12 10 9 11 13 13 12 12 10 9 8 7 7 9 11 11 13 14 10 10 17 20 16 16 15 15 16 18 20 21 20 20 19 17 15 14 14
12 9 8 5 5 4 1 6 10 12 16 17 14 11 12 13 10 9 9 9 9 10 9 7 8 10 11 12 12 10 10 10 11 13 16 18 20 21 20 19 18 15 11 8 8 9 8 9 10 9 10 8 6 9 12 11 10 10 10 9 8 6 4 5 5 5 9 12 10 10 13 18 21 20 18 18 18 18 19 20 21 21 20 19 17 17 15 14
15 14 12 9 8 8 6 2 4 8 13 16 14 11 12 14 13 10 9 9 9 10 8 7 9 10 10 11 12 11 10 9 9 12 15 17 17 18 19 19 19 19 19 18 14 9 7 7 8 9 9 6 4 5 6 7 7 6 5 4 5 3 1 2 2 3 7 8 7 11 18 21 22 22 20 18 19 19 19 20 21 21 19 18 17 16 15 14
18 16 15 14 12 11 10 8 6 7 10 13 14 14 13 14 13 11 11 10 9 9 8 7 8 8 10 11 11 10 11 10 10 13 15 15 14 14 13 12 13 14 16 19 21 18 13 9 9 10 8 5 5 3 4 6 6 3 3 5 6 7 5 5 4 4 6 7 7 10 18 22 21 22 21 19 18 18 18 19 20 19 18 17 17 16 15 14
16 16 16 15 14 14 12 10 9 7 5 7 12 16 15 13 12 10 9 9 9 9 8 7 7 8 8 10 10 10 11 11 12 14 16 15 13 13 11 9 10 11 11 13 16 18 17 13 12 13 11 8 9 9 9 8 6 7 10 11 11 10 8 7 6 7 9 9 9 11 17 20 20 20 19 18 17 17 17 18 19 19 19 18 17 17 17 15
13 13 13 13 12 13 12 11 9 7 6 5 7 11 15 15 13 10 9 9 7 8 8 7 7 7 6 7 8 9 11 11 12 14 15 14 13 12 10 8 9 11 11 10 11 12 14 15 14 14 12 11 11 12 12 11 10 11 13 12 11 11 10 9 9 9 11 11 12 16 20 21 20 20 19 18 18 17 17 18 19 20 21 20 19 19 18 17
10 9 10 11 11 11 12 11 8 6 8 8 7 7 10 11 11 8 7 8 8 7 6 5 5 5 4 4 4 6 8 10 11 12 12 12 12 11 10 9 8 8 8 9 10 10 11 13 15 15 12 12 12 10 8 8 7 7 12 15 13 12 12 12 11 11 11 12 14 18 21 21 21 20 20 19 19 19 19 20 21 21 22 21 20 20 19 18
Wind_Direction
291 290 288 286 284 281 280 278 276 274 273 272 271 270 269 268 267 266 266 267 267 268 269 270 270 270 270 271 272 273 273 274 273 270 266 261 256 251 247 245 238 231 227 221 217 217 219 219 218 217 216 216 217 220 222 222 223 221 221 224 226 229 230 230 230 217 188 175 121 117 118 85 80 44 32 39 39 46 54 97 106 86 75 47 33 20 28 71
296 295 293 291 288 284 282 279 277 275 273 271 270 269 268 267 266 266 266 266 266 268 269 270 270 271 271 271 272 273 274 274 272 270 266 261 257 252 249 247 241 233 226 217 213 215 218 218 217 216 215 214 216 218 219 219 221 220 221 225 226 230 234 235 235 222 200 201 188 138 119 95 85 39 38 33 9 16 43 60 53 45 35 18 16 14 12 22
301 300 298 297 293 290 285 281 278 276 274 272 270 269 268 267 266 266 265 266 266 267 268 269 270 271 272 272 273 273 274 274 271 267 263 258 256 252 248 245 239 235 229 219 213 213 216 217 215 214 214 214 215 217 218 218 218 218 221 224 226 231 236 239 240 228 221 221 206 171 148 140 121 47 56 11 340 337 24 60 41 8 10 2 359 354 346 349
303 303 302 301 299 297 292 287 282 278 275 273 272 270 268 267 266 265 265 265 265 266 267 268 269 270 271 271 273 274 275 274 270 265 261 258 254 250 247 243 238 234 231 224 217 213 215 216 214 213 214 214 216 217 218 218 216 216 219 222 225 231 233 238 242 227 224 226 212 197 180 175 184 146 199 285 305 309 332 9 345 334 335 332 334 334 331 339
304 305 304 303 302 301 299 296 291 285 280 275 273 271 270 268 267 266 265 265 265 266 267 268 269 269 270 271 272 272 274 274 268 263 261 257 251 245 241 240 240 235 230 226 220 215 215 216 214 212 213 214 216 218 219 220 218 217 218 220 224 228 228 231 235 216 211 218 213 209 205 196 200 218 264 279 283 291 299 311 316 312 300 304 320 327 342 16
304 305 305 304 303 302 301 300 299 294 288 281 277 274 272 270 268 267 265 265 265 266 267 267 268 268 268 269 269 270 269 266 262 260 257 253 248 241 234 236 240 236 230 224 222 219 216 216 214 212 214 215 216 217 219 222 221 220 221 222 225 229 228 218 208 199 196 204 205 208 216 210 206 231 265 270 276 286 284 291 299 301 298 300 310 332 19 25
303 303 303 303 303 302 301 300 301 300 297 290 283 277 273 271 268 266 265 264 264 264 265 266 266 266 267 268 267 267 263 257 255 255 252 249 248 246 241 239 239 237 229 223 222 221 218 216 213 212 214 215 216 217 219 223 224 224 224 226 229 231 227 206 191 195 201 200 197 207 217 215 217 235 252 261 274 282 283 287 290 298 300 291 275 234 28 30
301 301 301 302 302 301 300 300 300 302 301 297 290 282 275 271 267 265 264 264 264 263 263 263 263 263 264 266 265 265 261 254 252 252 251 251 252 254 254 247 237 234 228 221 219 219 217 215 212 212 213 215 216 216 219 223 227 228 227 229 232 233 229 216 206 204 211 205 201 212 215 215 224 237 247 255 265 274 284 292 295 293 283 268 232 166 57 41
300 299 299 299 299 299 298 298 298 300 301 300 295 288 279 273 268 265 264 263 263 262 262 262 261 261 262 263 265 265 260 252 249 249 251 253 255 252 250 246 237 231 225 219 217 214 212 211 212 212 211 214 215 215 218 219 225 230 232 232 230 230 228 223 216 210 215 213 211 217 214 215 227 241 251 256 263 279 294 297 291 274 258 234 160 125 60 57
299 299 298 298 297 297 296 295 296 297 298 299 296 290 282 274 268 265 264 263 262 260 262 262 260 260 260 260 264 267 259 249 245 245 248 252 254 247 242 241 234 230 222 215 215 210 205 204 205 207 206 209 211 210 213 213 217 225 232 232 228 225 222 222 220 217 226 226 220 220 217 221 233 245 251 256 265 281 294 293 271 235 203 163 146 142 98 108
299 299 299 298 297 296 295 294 294 294 296 297 295 292 284 275 268 266 264 263 263 261 259 259 259 259 258 257 263 265 253 243 237 239 249 257 256 249 243 237 227 223 216 206 202 195 193 191 193 199 199 203 206 206 208 210 214 217 225 231 228 226 223 224 223 222 238 238 227 225 227 232 240 247 251 255 260 265 272 261 216 191 169 162 167 149 121 122
299 300 300 300 300 298 297 296 294 293 293 293 293 292 288 278 268 265 264 263 263 262 260 258 257 256 254 253 256 254 243 235 232 235 248 255 252 244 236 230 217 207 197 185 175 175 182 183 186 192 197 201 202 204 207 211 216 217 225 235 230 230 232 231 228 227 240 240 230 229 235 238 242 250 250 247 251 253 245 219 191 178 172 176 172 148 128 115
297 298 300 302 302 303 302 300 298 294 291 289 289 290 289 282 270 264 262 262 261 260 259 256 256 254 253 249 246 246 241 232 230 234 242 242 239 231 222 215 207 194 171 154 158 170 177 182 186 193 200 201 198 202 202 206 212 213 225 239 233 234 239 235 232 237 239 237 232 234 240 240 244 252 246 239 244 244 227 212 197 181 183 189 172 151 133 117
293 295 298 301 303 305 305 305 303 299 295 290 288 288 286 280 271 263 259 258 258 257 255 254 253 252 250 246 244 238 214 214 224 228 230 226 224 216 204 199 195 178 157 151 161 170 175 183 189 194 202 199 198 203 196 197 203 204 220 236 235 236 234 231 241 252 247 245 245 246 251 247 246 252 244 235 235 231 217 211 205 185 187 194 172 152 139 138
290 292 296 299 301 304 304 305 305 305 304 299 290 285 282 278 274 269 262 256 253 253 252 249 249 251 247 242 240 218 169 191 215 217 213 209 204 188 181 182 174 163 157 160 167 170 173 185 190 191 199 200 200 203 201 201 199 203 217 221 228 236 236 238 246 251 246 253 254 248 255 255 251 252 245 235 228 219 209 206 211 191 183 191 176 161 158 154
287 290 295 298 301 302 303 303 303 304 308 307 295 285 281 280 278 274 268 259 253 249 248 246 245 249 246 237 230 200 167 179 198 205 198 194 188 172 171 171 164 162 163 168 170 172 179 184 190 193 197 204 207 206 207 212 202 204 214 204 216 233 243 240 204 194 257 282 269 246 250 258 253 250 241 229 219 206 201 204 210 189 180 190 185 173 167 151
285 288 292 297 301 302 303 302 300 302 307 309 301 288 283 280 278 278 275 270 261 253 250 246 242 244 241 233 216 195 187 184 183 187 184 191 186 169 169 168 166 168 168 172 173 177 185 182 192 199 201 209 213 211 213 218 208 200 206 211 224 228 242 239 189 202 317 304 285 257 244 242 235 231 216 202 196 190 193 201 196 175 180 194 190 176 166 152
284 285 289 295 299 302 304 301 299 301 305 308 303 290 282 279 280 282 281 279 273 266 261 251 246 245 234 219 207 196 196 188 178 176 178 188 183 169 170 172 172 173 171 175 178 180 191 193 198 203 208 216 220 217 215 212 205 197 202 218 224 229 242 255 262 321 321 305 288 264 236 224 218 218 207 189 190 190 193 195 184 177 188 198 189 176 166 157
283 283 285 291 296 300 303 301 299 299 303 305 299 289 284 282 284 287 287 286 288 282 268 251 242 236 215 201 204 200 192 188 183 178 175 181 179 172 174 177 177 177 177 182 184 186 199 209 210 211 214 219 226 227 218 208 203 201 217 226 232 250 250 274 317 327 319 309 286 251 223 208 210 219 222 220 217 205 193 185 180 185 197 199 187 178 173 164
283 282 283 287 291 297 301 301 297 296 301 300 292 287 285 284 284 286 287 289 294 285 269 259 243 226 207 197 203 202 192 191 186 177 172 174 174 174 178 181 180 181 185 188 191 197 208 217 220 226 228 228 233 234 223 215 224 238 248 241 247 286 283 305 332 329 319 315 287 238 215 201 207 218 226 234 231 202 186 182 180 184 198 201 187 179 178 171
284 282 282 283 287 291 296 299 294 292 297 293 284 282 281 284 289 296 297 292 285 277 269 264 251 225 204 199 201 196 192 191 183 176 169 168 173 177 182 185 186 188 191 193 196 201 211 222 225 229 234 229 226 220 212 213 230 245 250 240 244 319 311 320 343 334 325 328 301 234 211 199 207 216 221 228 219 194 183 177 174 180 195 201 190 183 186 184
285 282 279 281 283 286 290 294 289 286 289 285 275 272 276 286 299 310 311 306 278 259 263 262 258 230 201 200 197 190 191 185 179 178 173 170 174 180 185 189 193 194 195 200 201 198 211 223 219 209 204 203 202 199 202 214 227 233 231 232 260 335 322 326 1 346 335 346 359 213 202 198 204 210 214 218 211 192 182 174 173 181 196 203 198 193 195 194
285 283 279 278 278 281 284 287 282 276 278 276 265 265 276 290 306 317 319 315 297 236 257 262 264 232 197 197 196 193 191 179 180 183 181 181 181 185 188 188 190 191 194 199 197 198 212 212 186 174 180 189 196 203 213 222 224 223 224 233 282 327 316 312 333 341 342 6 51 124 164 180 192 203 209 215 219 198 186 184 184 189 200 210 207 200 197 193
282 281 280 275 274 275 277 279 275 269 268 267 261 266 280 294 311 322 322 315 306 254 260 263 264 224 192 195 198 199 193 182 187 190 189 189 187 189 189 186 187 188 188 189 195 208 205 173 158 166 177 198 208 216 219 221 218 217 224 235 298 327 304 297 322 340 354 27 77 128 131 148 170 191 202 208 221 213 200 195 193 196 206 214 208 200 195 188
279 278 278 275 271 270 271 272 267 263 260 260 262 269 283 296 312 323 323 316 310 296 274 263 255 210 192 196 199 201 202 194 192 196 195 191 187 189 185 187 194 191 187 188 203 218 193 166 176 171 320 261 232 218 211 217 220 219 225 216 172 341 314 296 326 346 236 123 139 154 130 136 162 177 197 205 214 219 217 210 202 200 209 216 209 201 196 187
279 276 275 273 270 266 265 266 260 257 253 253 264 270 280 294 307 320 322 314 308 308 299 263 233 208 196 197 198 200 211 208 193 196 199 187 187 193 188 194 198 193 193 198 218 223 196 188 208 213 340 311 237 215 208 217 223 223 223 172 162 297 310 284 293 326 246 158 144 162 163 152 158 161 177 194 205 216 223 223 214 207 210 215 210 204 199 191
277 275 274 271 269 264 260 260 257 253 247 248 261 267 277 292 301 318 324 315 306 311 328 279 211 208 199 198 201 201 210 209 192 197 197 183 185 191 194 204 202 195 197 205 220 216 201 200 205 235 317 329 217 208 204 210 215 219 215 180 201 294 303 255 239 298 246 175 162 161 151 149 153 152 155 169 187 208 219 220 219 214 213 214 209 206 203 195
276 273 272 269 268 264 257 256 254 250 245 244 252 258 269 282 295 315 330 334 318 331 335 289 182 199 197 197 204 203 200 189 192 199 191 184 192 196 200 204 197 197 201 210 218 213 209 213 220 253 301 351 201 205 202 204 211 219 212 210 254 286 272 221 206 227 223 194 206 179 156 153 166 165 156 162 178 196 216 215 217 216 214 212 209 208 206 200
277 272 269 266 265 264 259 253 249 249 245 240 245 250 256 266 284 306 330 333 298 287 3 59 175 206 198 196 201 203 201 182 187 196 190 190 198 200 206 204 203 217 220 225 229 227 230 233 245 263 273 300 209 203 199 199 210 220 218 232 261 264 231 191 185 202 198 202 224 189 177 180 185 180 171 166 169 174 200 210 216 216 212 209 207 208 208 204
280 274 270 265 261 261 259 254 246 246 244 237 238 242 245 252 260 283 310 231 264 301 305 227 181 195 202 201 198 199 205 198 172 180 192 202 202 203 214 216 220 234 237 241 244 242 244 249 256 256 251 295 280 206 196 197 208 220 230 244 251 237 217 199 199 198 177 224 229 202 201 205 195 180 173 169 169 170 184 198 210 220 214 208 205 205 208 206
283 277 272 267 260 256 256 253 245 243 241 234 232 233 236 240 235 217 175 241 256 269 204 161 170 184 204 208 204 202 209 211 197 187 198 209 209 213 220 222 223 232 241 247 251 250 248 250 252 242 240 276 278 220 198 198 206 217 234 232 214 199 196 196 203 185 170 269 208 190 201 206 205 173 160 163 174 181 190 197 207 223 223 213 206 204 207 209
286 279 274 269 262 255 251 247 243 242 238 232 228 224 221 220 219 215 215 246 267 213 177 147 162 176 184 216 215 214 218 222 221 220 223 221 219 221 224 227 225 224 234 238 241 248 247 244 241 235 236 252 260 228 205 202 210 220 226 212 191 140 146 189 227 183 204 235 181 178 184 202 224 217 191 185 188 200 215 217 218 225 231 226 213 207 208 210
290 282 274 269 264 257 248 242 240 240 236 229 224 218 208 197 222 228 226 228 225 189 191 209 200 180 193 238 224 223 227 229 227 227 230 230 228 227 229 234 231 228 232 231 235 245 251 249 240 233 234 238 240 228 209 208 215 222 222 211 193 122 94 227 257 9 272 215 177 177 181 208 232 236 236 236 236 241 245 244 240 234 234 234 221 210 208 209
296 285 275 269 265 258 247 237 234 236 233 225 220 210 199 201 226 232 233 236 237 241 247 254 251 232 240 251 234 229 229 231 228 226 227 226 226 231 234 235 232 231 234 234 237 241 245 254 240 230 231 231 230 229 223 220 221 225 224 218 212 188 154 186 213 188 179 177 173 176 185 223 213 216 234 239 245 250 250 252 250 242 231 230 228 215 208 209
303 289 277 269 262 255 246 233 228 231 229 223 215 203 201 212 223 231 239 243 245 253 256 257 258 250 249 249 242 234 227 229 227 225 226 225 227 234 237 236 231 227 226 226 233 231 233 248 236 222 223 225 228 228 227 225 221 221 218 217 220 210 187 167 175 177 153 137 162 188 208 227 208 215 218 222 245 250 248 247 240 234 221 219 229 219 207 208
308 294 278 270 261 253 246 234 226 226 226 221 211 207 213 221 224 230 237 240 245 252 252 254 256 251 251 247 236 227 223 224 222 222 224 226 230 233 233 235 232 226 221 219 220 216 223 232 219 211 215 220 229 227 221 222 220 212 210 214 217 212 201 175 139 140 135 131 182 202 219 217 203 216 207 201 234 236 230 228 219 216 211 211 222 216 207 209
308 298 279 271 265 255 245 236 225 222 223 220 214 216 224 227 226 226 223 223 231 238 251 260 245 233 244 243 228 217 215 216 213 216 218 221 229 231 230 232 231 227 224 223 226 229 232 227 207 205 210 210 217 222 219 220 221 213 207 212 209 201 200 181 132 89 99 126 211 209 225 205 183 193 198 193 192 190 197 197 195 201 203 209 221 218 211 213
307 301 283 272 267 257 244 234 225 221 220 218 219 225 230 230 228 227 223 220 223 233 262 276 257 230 241 243 228 214 214 216 210 215 218 217 224 228 227 229 230 228 228 228 232 236 240 237 209 202 212 206 203 210 209 208 213 214 212 209 202 192 188 176 151 133 148 151 240 232 239 208 193 185 186 190 179 167 176 174 177 200 208 214 227 228 223 223
307 304 288 272 267 260 244 231 223 219 217 216 219 225 230 232 230 230 231 234 241 251 263 269 258 241 239 243 249 226 222 225 216 217 221 214 213 215 216 223 229 232 233 234 236 233 229 232 217 199 205 197 191 199 196 190 198 206 210 206 202 202 192 183 175 168 166 161 196 215 266 218 204 198 192 200 198 187 194 213 234 253 246 227 236 241 241 242
310 308 296 276 267 260 245 231 219 215 215 218 222 224 229 234 233 232 236 241 248 252 254 253 246 239 236 237 255 241 232 237 225 225 233 219 213 213 205 205 213 233 235 232 229 225 220 223 222 202 199 191 185 197 194 184 191 198 201 200 201 203 186 176 179 174 159 152 160 170 283 210 196 201 206 212 215 208 212 231 245 238 222 230 248 239 227 233
314 312 303 283 272 264 248 230 215 211 214 220 225 226 229 236 236 235 238 242 248 250 247 245 243 240 239 240 241 231 243 250 229 227 237 224 217 221 211 208 210 226 231 215 208 211 213 218 218 203 193 185 177 183 181 178 190 195 196 196 198 202 186 167 172 190 172 163 169 164 204 197 181 193 205 205 207 207 202 210 224 221 224 244 242 212 193 198
321 318 306 287 281 272 243 221 208 208 213 219 224 227 231 238 242 240 239 240 245 247 246 246 246 244 244 244 243 239 248 256 234 225 225 212 212 221 221 222 224 216 208 193 195 203 206 211 210 189 167 164 166 174 167 166 187 192 191 198 200 204 198 183 180 188 176 164 169 159 155 189 180 180 190 187 187 192 194 198 209 218 225 226 210 191 188 208
334 330 315 294 283 259 227 210 203 205 211 219 225 228 231 237 242 245 245 244 244 244 243 246 247 247 246 244 245 246 242 238 230 223 216 197 197 209 215 223 226 218 209 195 183 191 196 198 182 150 137 147 159 173 165 162 188 196 190 196 196 201 203 201 205 195 180 168 163 151 131 187 184 179 179 179 181 188 198 204 206 212 211 200 194 197 209 213
345 341 328 307 266 226 209 205 206 207 211 218 225 228 230 233 238 241 241 239 234 226 226 234 239 241 240 235 235 239 231 223 220 216 208 196 192 196 200 205 212 216 213 212 202 190 192 189 163 139 120 138 159 179 178 170 188 201 196 192 195 200 200 203 204 191 183 181 179 172 169 185 184 180 171 167 173 181 190 195 194 197 198 196 203 214 212 204
352 349 344 327 276 229 211 209 213 214 215 217 220 223 222 223 229 229 224 225 225 216 210 218 229 227 220 215 218 224 218 213 214 207 200 200 201 200 199 200 202 199 199 209 213 203 197 187 170 159 152 165 171 187 190 182 183 188 186 182 185 193 194 195 190 183 183 190 188 187 182 179 182 183 174 165 165 169 174 182 187 192 198 204 212 216 210 205
2 2 2 350 319 265 223 212 214 217 217 212 212 215 210 209 222 225 221 222 221 215 209 209 217 213 204 203 212 218 213 210 215 209 199 199 204 205 205 209 210 200 187 197 207 207 202 180 170 179 189 192 194 190 183 183 180 173 172 172 172 180 188 185 182 187 193 192 192 200 191 179 179 181 180 177 171 164 169 180 188 197 206 209 210 211 211 209
19 22 16 12 10 9 331 208 201 203 209 206 201 203 202 199 202 207 209 210 202 202 207 208 208 202 193 196 205 210 208 211 216 214 206 202 206 211 214 219 221 216 217 221 201 192 181 148 134 148 168 179 190 182 178 181 174 159 157 161 161 162 178 183 176 192 198 192 198 207 192 181 180 179 180 182 178 170 171 181 191 198 206 210 209 209 209 205
34 37 33 32 32 38 47 74 144 158 179 186 177 172 182 183 179 177 180 183 183 189 199 203 205 203 192 189 197 199 197 200 204 206 208 205 208 216 217 222 227 224 224 227 219 205 184 150 140 144 139 129 132 144 168 186 171 148 143 155 171 170 335 286 236 223 207 206 224 213 191 183 180 177 176 179 178 176 177 184 193 200 205 209 211 211 209 205
39 40 40 39 37 42 52 54 66 104 138 143 135 137 154 162 159 161 168 172 172 175 188 196 195 198 194 187 190 191 186 186 185 188 196 199 202 207 204 205 218 222 223 226 225 224 219 207 209 208 193 200 209 165 154 167 150 117 3 334 283 255 285 300 263 236 225 225 244 223 196 185 180 176 177 179 179 180 182 186 194 200 205 208 210 211 213 214
41 38 37 35 34 38 41 46 49 56 86 108 107 106 113 124 130 135 150 163 169 168 174 183 177 178 188 189 190 191 186 183 178 177 185 190 188 188 186 179 187 196 205 211 214 220 219 207 211 214 198 186 198 201 209 221 239 276 295 306 291 264 260 267 248 236 233 228 229 218 200 192 186 182 184 186 186 187 189 192 197 201 204 205 207 210 214 218
40 37 32 24 30 36 31 31 40 46 51 64 82 85 88 96 100 102 114 125 139 155 161 169 171 172 188 198 196 195 192 185 176 173 179 184 183 182 181 172 174 180 187 190 192 204 208 200 202 210 197 181 200 223 238 244 248 255 258 259 260 255 243 235 232 233 234 230 221 209 200 196 195 194 197 199 197 196 198 199 201 203 205 207 210 214 217 221
29 28 24 17 24 36 30 25 34 57 67 70 72 66 64 74 82 85 92 94 99 117 130 138 153 163 186 210 211 205 202 192 182 178 180 185 187 188 182 169 167 173 179 186 186 189 202 204 203 205 195 183 195 206 194 180 181 204 213 215 223 232 230 225 222 222 222 221 217 211 205 202 201 201 203 205 204 204 206 206 206 207 210 213 216 218 222 227